www.pogodaiklimat.ru

Погода и климат >> Архив погоды >> Иран >> Kermanshah


ПОГОДА в Kermanshah

  • Прогноз погоды в Kermanshah
  • Монитор погоды в Kermanshah
  • Климат города

АРХИВ ПОГОДЫ в Kermanshah

Время (UTC), дата Ветер
(напр.,м/с)
 
Видим.   Явления Облачность Т
(С)
Тd
(С)
f
(%)
Тe
(С)
Тes
(С)
Комфортность P
(гПа)
Po
(гПа)
Тmin
(С)
Tmax
(С)
R
(мм)
R24
(мм)
S
(см)
09 11.08 В 6 10 км 3/3 1350 м
[Cu hum]
+34.7 -1.6 10 +31 +36 жарко 1000.7 865.6
12 11.08 С 2 10 км 4/3 1350 м
[Cu hum Ci fib]
+37.1 -4.6 7 +33 +40 жарко 999.9 864.7
15 11.08 ЮЗ 7 10 км 4/4 1200 м
[Cu Sc]
+34.3 +0.8 12 +31 +31 жарко 999.7 864.1 +37.8
18 11.08 СЗ 2 10 км 4/4 1200 м
[Sc diur, vesp]
+31.2 +3.2 17 +29 +29 жарко 1001.0 865.1
21 11.08 В 2 10 км 4/1 1200 м
[Sc diur, vesp Ac trans]
+26.6 +1.4 19 +25 +25 комфорт 1000.6 865.0
00 12.08 штиль 0 10 км 5/1 1200 м
[Sc diur, vesp Ac trans]
+25.7 +0.5 19 +24 +24 комфорт 1000.2 864.9
03 12.08 штиль 0 10 км 6/3 1350 м
[Sc diur, vesp Ac trans]
+23.6 +1.5 23 +23 +23 комфорт 1001.5 865.1 +23.1
06 12.08 СВ 2 10 км 1/1 1000 м
[Cu hum]
+31.8 +1.6 15 +29 +39 жарко 1001.6 866.2
09 12.08 СЗ 3 10 км 3/3 1200 м
[Cu hum Ac trans]
+36.4 -1.3 9 +33 +44 жарко 1000.3 865.0
12 12.08 ЮЗ 4 10 км 4/4 1350 м
[Cu hum]
+38.2 -5.8 6 +34 +38 очень
жарко
998.7 863.7
15 12.08 З 5 10 км 4/4 1350 м
[Sc diur, vesp]
+36.2 -1.8 9 +32 +32 жарко 998.5 862.8 +38.7
18 12.08 СЗ 2 10 км ясно +31.1 +1.2 15 +28 +28 жарко 999.2 864.1
21 12.08 З 3 10 км 1/1 1350 м
[Sc diur, vesp]
+28.4 +3.1 20 +27 +27 жарко 998.3 863.8
00 13.08 В 2 10 км 4/1 1350 м
[Sc diur, vesp Ac trans]
+25.4 +1.7 21 +24 +24 комфорт 998.3 863.5
03 13.08 З 2 10 км 3/3 1350 м
[Sc diur, vesp]
+20.7 0.0 25 +21 +22 комфорт 1000.7 864.1 +20.1
06 13.08 В 4 10 км 3/0
[Ac trans]
+32.3 -1.1 12 +29 +35 жарко 1000.3 865.0
09 13.08 СЗ 4 10 км 1/1 1350 м
[Cu hum]
+37.2 -0.7 9 +33 +45 жарко 999.6 864.9
12 13.08 СЗ 6 10 км 4/4 1350 м
[Cu hum]
+39.0 -10.9 4 +34 +37 очень
жарко
998.4 863.5
15 13.08 З 5 10 км 3/3 1350 м
[Cu hum]
+36.7 -10.3 5 +32 +32 жарко 999.8 863.3 +39.9
18 13.08 З 4 10 км ясно +28.8 -2.6 13 +26 +26 жарко 1000.1 864.5
21 13.08 З 5 10 км ясно +28.2 -4.3 12 +25 +25 комфорт 999.8 865.0
00 14.08 штиль 0 10 км ясно +25.2 -4.4 14 +23 +23 комфорт 999.9 864.8
03 14.08 штиль 0 10 км ясно +20.6 -4.2 18 +20 +21 1002.5 865.7 +19.3
06 14.08 В 4 10 км ясно +33.5 -6.1 7 +29 +37 жарко 1001.8 865.9
09 14.08 СЗ 4 10 км 1/1 1350 м
[Cu hum]
+38.4 -8.4 5 +34 +46 очень
жарко
999.5 864.9
12 14.08 З 6 10 км 5/5 1350 м
[Cu hum]
+39.5 -14.8 3 +35 +37 очень
жарко
999.0 864.1
15 14.08 СЗ 5 10 км ясно +36.0 -5.7 7 +32 +32 жарко 1000.2 863.6 +39.9
18 14.08 З 4 10 км ясно +30.6 -1.3 13 +27 +27 жарко 1000.3 865.2
21 14.08 СЗ 3 10 км ясно +26.7 -1.0 16 +24 +24 комфорт 1000.2 865.2
00 15.08 СЗ 2 10 км ясно +22.0 -0.3 23 +21 +21 комфорт 1000.7 865.0
03 15.08 штиль 0 10 км ясно +19.4 +0.6 28 +19 +20 1002.8 865.6 +18.5
06 15.08 ЮВ 5 10 км ясно +30.0 -0.8 14 +27 +33 жарко 1002.0 866.0
09 15.08 З 5 10 км ясно +35.7 -6.3 7 +31 +42 жарко 1000.4 864.9
12 15.08 З 3 15 км 1/1 1350 м
[Cu med, cong]
+36.7 -4.9 7 +32 +40 жарко 999.4 863.3
15 15.08 ЮЗ 8 15 км 1/0
[Ac trans]
+34.3 -5.4 8 +30 +30 жарко 1000.5 863.2 +38.3
18 15.08 З 5 10 км ясно +29.1 -5.7 10 +26 +26 жарко 1000.9 864.6
21 15.08 СЗ 3 10 км ясно +24.3 -0.6 19 +23 +23 комфорт 1000.6 865.2
00 16.08 В 3 15 км ясно +21.8 -1.8 21 +21 +21 комфорт 1000.9 864.5
03 16.08 С 2 15 км ясно +18.1 -0.8 28 +19 +19 1002.8 864.9 +17.6
06 16.08 З 3 10 км ясно +30.2 +2.4 17 +28 +37 жарко 1001.5 865.4
09 16.08 СЗ 6 10 км ясно +33.0 +2.9 15 +30 +38 жарко 1002.2 865.6
12 16.08 З 8 10 км ясно +35.8 -4.2 8 +32 +34 жарко 1000.9 864.4
15 16.08 З 6 10 км ясно +33.8 -2.4 10 +30 +30 жарко 1002.4 864.5 +36.6
18 16.08 З 4 10 км ясно +29.0 0.0 15 +26 +26 жарко 1001.8 865.6
21 16.08 В 2 10 км ясно +22.8 +0.6 23 +22 +22 комфорт 1000.9 865.3
00 17.08 С 5 10 км 8/4 1200 м
[Sc diur, vesp Ac und]
+29.2 -0.7 14 +26 +26 жарко 1001.0 866.0
03 17.08 З 3 10 км 5/3 1200 м
[Sc diur, vesp Ac und]
+24.4 +1.7 23 +23 +24 комфорт 1003.5 866.9 +23.8
06 17.08 В 6 10 км 1/0
[Ac trans]
+31.8 +2.0 15 +29 +33 жарко 1003.4 867.3
09 17.08 ЮЗ 2 9000 м в посл. час ливневой дождь 9/6 1470 м
[Cb calv Ac As]
+33.6 +2.4 14 +31 +34 жарко 1005.2 867.9
12 17.08 ЮЗ 3 10 км 4/1 1350 м
[Sc diur, vesp Ac trans]
+37.3 +0.8 10 +34 +40 очень
жарко
1000.0 865.5
15 17.08 З 4 10 км 4/4 1350 м
[Sc diur, vesp]
+35.4 +9.7 21 +34 +33 очень
жарко
1003.3 865.2 +37.4
18 17.08 штиль 0 10 км ясно +28.9 +3.7 20 +27 +27 жарко 1002.5 866.5
21 17.08 ЮВ 2 10 км ясно +23.0 -0.4 21 +22 +22 комфорт 866.5
00 18.08 В 2 10 км ясно +22.6 +2.2 26 +22 +22 комфорт 1001.8 865.8
03 18.08 ЮВ 2 10 км 3/3 1350 м
[Sc diur, vesp]
+20.1 +1.5 29 +21 +21 комфорт 1004.1 866.8 +20.0
06 18.08 В 2 10 км 1/0
[Ac trans]
+31.3 +2.3 16 +29 +39 жарко 1004.0 867.7

 

Местоположение метеостанции Kermanshah (Иран): широта 34.27 долгота 47.12 высота над уровнем моря 1322 м.

В архиве по умолчанию представлена погода в Kermanshah за последнюю неделю. Архивные данные за месяц целиком и за предыдущие месяцы, начиная с января 2011 года, Вы можете получить, выбрав интересующий диапазон дат из раскрывающегося списка и нажав кнопку "Ввод!".

Внимание! Время в таблицах - всемирное. Для получения местного времени необходимо прибавить поправку, которая в Kermanshah равна 3.5 ч.

Смотрите также архив погоды в соседних городах и на ближайших метеорологических станциях:

Погода в Ilam (Иран) (95 км)
Погода в Sanandaj (Иран) (118 км)
Погода в Hamedan (Иран) (144 км)
Погода в Khorram Abad (Иран) (145 км)
Погода в Halabcha (Ирак) (149 км)
Погода в Khanaqin (Ирак) (155 км)
Погода в Badrah (Ирак) (169 км)
Погода в Ali Al-Gharbi (Ирак) (204 км)
Погода в Sulaimaniya (Ирак) (208 км)
Погода в Saghez (Иран) (233 км)

Пояснения к столбцам:

Ветер - указаны скорость ветра в м/с - средняя за 10 мин, порывы в срок и между сроками (в фигурных скобках) и направление, откуда дует ветер: С - северный, СВ - северо-восточный, В - восточный, ЮВ - юго-восточный, Ю - южный, ЮЗ - юго-западный, З - западный, СЗ - северо-западный.
Видимость - горизонтальная дальность видимости в метрах или километрах. При видимости от 1 до 10 км при отсутствии осадков обычно наблюдается дымка, при ухудшении видимости до 1 км и менее - туман. В сухую погоду видимость может ухудшаться дымом, пылью или мглою.
Явления - указаны атмосферные явления, наблюдавшиеся в срок или в последний час перед сроком; фигурными скобками обозначены явления, наблюдавшиеся между сроками (за 1-3 часа до срока); квадратными скобками обозначены град или гололедные отложения с указанием их диаметра в мм.
Облачность - указаны через наклонную черту общая и нижняя облачность в баллах и высота нижней границы облаков в метрах; квадратными скобками обозначены формы облаков: Ci - перистые, Cs - перисто-слоистые, Cc - перисто-кучевые, Ac - высококучевые, As - высокослоистые, Sc - слоисто-кучевые, Ns - слоисто-дождевые, Cu - кучевые, Cb - кучево-дождевые. Подробнее классификацию облаков см. в Атласе облаков (PDF).
T - Температура воздуха - температура, измеренная на высоте 2 м над землей.
Td - Температура точки росы - температура, при понижении до которой содержащийся в воздухе водяной пар достигнет насыщения.
f - Относительная влажность воздуха - влажноcть воздуха, измеренная на высоте 2 м над землей.
Te - Эффективная температура - температура, которую ощущает одетый по сезону человек в тени. Характеристика душности погоды. При расчете учитывается влияние влажности воздуха и скорости ветра на теплоощущения человека.
Tes - Эффективная температура на солнце - температура, которую ощущает человек, с поправкой на солнечный нагрев. Характеристика знойности погоды. Зависит от высоты солнца над горизонтом, облачности и скорости ветра. Ночью, в пасмурную погоду, а также при ветре 12 м/с и более поправка равна нулю.
P - Атмосферное давление - приведенное к уровню моря атмосферное давление.
Po - Атмосферное давление - измеренное на уровне метеостанции атмосферное давление.
Tmin - Минимальная температура - минимум температуры воздуха на высоте 2 м над землей.
Tmax - Максимальная температура - максимум температуры воздуха на высоте 2 м над землей.
R - Количество осадков - Количество выпавших осадков за период времени, мм. При наведении курсора мыши на число - период времени, за который выпало указанное количество осадков.
R24 - Количество осадков - Количество выпавших осадков за 24 часа, мм.
S - Снежный покров - Высота снежного покрова, см. При наведении курсора мыши на число - состояние снежного покрова и степень покрытия местности в баллах.